owner,sensor,date,latitude,longitude,vertical_datum,sea_water_temperature,qcFlag
Shell,ioos:station:wmo:42902:1,2020-07-01T00:02:00Z,28.6098,-87.9810,10.8,29.1,11111222
Shell,ioos:station:wmo:42902:1,2020-07-01T00:12:00Z,28.6098,-87.9810,11.0,29.2,11111222
Shell,ioos:station:wmo:42902:1,2020-07-01T00:22:00Z,28.6098,-87.9810,11.1,29.2,11111222
Shell,ioos:station:wmo:42902:1,2020-07-01T00:32:00Z,28.6098,-87.9810,11.1,29.1,11111222
Shell,ioos:station:wmo:42902:1,2020-07-01T00:42:00Z,28.6098,-87.9810,11.1,29.2,11111222
Shell,ioos:station:wmo:42902:1,2020-07-01T00:52:00Z,28.6098,-87.9810,11.1,29.2,11111222
Shell,ioos:station:wmo:42902:1,2020-07-01T01:02:00Z,28.6098,-87.9810,11.1,29.2,11111222
Shell,ioos:station:wmo:42902:1,2020-07-01T01:12:00Z,28.6098,-87.9810,11.1,29.2,11111222
Shell,ioos:station:wmo:42902:1,2020-07-01T01:22:00Z,28.6098,-87.9810,11.1,29.2,11111222
Shell,ioos:station:wmo:42902:1,2020-07-01T01:32:00Z,28.6098,-87.9810,11.1,29.1,11111222
Shell,ioos:station:wmo:42902:1,2020-07-01T01:42:00Z,28.6098,-87.9810,11.2,29.0,11111222
Shell,ioos:station:wmo:42902:1,2020-07-01T01:52:00Z,28.6098,-87.9810,11.1,29.0,11111222
Shell,ioos:station:wmo:42902:1,2020-07-01T02:02:00Z,28.6098,-87.9810,11.1,29.0,11111222
Shell,ioos:station:wmo:42902:1,2020-07-01T02:12:00Z,28.6098,-87.9810,11.0,29.1,11111222
Shell,ioos:station:wmo:42902:1,2020-07-01T02:22:00Z,28.6098,-87.9810,11.0,29.1,11111222
Shell,ioos:station:wmo:42902:1,2020-07-01T02:32:00Z,28.6098,-87.9810,10.9,29.2,11111222
Shell,ioos:station:wmo:42902:1,2020-07-01T02:42:00Z,28.6098,-87.9810,11.0,29.2,11111222
Shell,ioos:station:wmo:42902:1,2020-07-01T02:52:00Z,28.6097,-87.9810,10.9,29.1,11111222
Shell,ioos:station:wmo:42902:1,2020-07-01T03:02:00Z,28.6098,-87.9810,10.9,29.1,11111222
Shell,ioos:station:wmo:42902:1,2020-07-01T03:13:00Z,28.6098,-87.9810,10.9,29.2,11111222
Shell,ioos:station:wmo:42902:1,2020-07-01T03:23:00Z,28.6098,-87.9810,10.9,29.3,11111222
Shell,ioos:station:wmo:42902:1,2020-07-01T03:33:00Z,28.6098,-87.9810,10.9,29.2,11111222
Shell,ioos:station:wmo:42902:1,2020-07-01T03:43:00Z,28.6098,-87.9810,10.9,29.3,11111222
Shell,ioos:station:wmo:42902:1,2020-07-01T03:53:00Z,28.6098,-87.9810,11.0,29.3,11111222
Shell,ioos:station:wmo:42902:1,2020-07-01T04:03:00Z,28.6098,-87.9810,11.1,29.4,11111222
Shell,ioos:station:wmo:42902:1,2020-07-01T04:13:00Z,28.6098,-87.9810,11.0,29.4,11111222
Shell,ioos:station:wmo:42902:1,2020-07-01T04:23:00Z,28.6098,-87.9810,11.0,29.4,11111222
Shell,ioos:station:wmo:42902:1,2020-07-01T04:33:00Z,28.6098,-87.9810,11.2,29.4,11111222
Shell,ioos:station:wmo:42902:1,2020-07-01T04:43:00Z,28.6098,-87.9810,11.1,29.2,11111222
Shell,ioos:station:wmo:42902:1,2020-07-01T04:53:00Z,28.6098,-87.9810,11.1,29.2,11111222
Shell,ioos:station:wmo:42902:1,2020-07-01T05:03:00Z,28.6098,-87.9810,11.0,29.1,11111222
Shell,ioos:station:wmo:42902:1,2020-07-01T05:13:00Z,28.6098,-87.9810,11.1,29.1,11111222
Shell,ioos:station:wmo:42902:1,2020-07-01T05:23:00Z,28.6098,-87.9810,11.1,29.3,11111222
Shell,ioos:station:wmo:42902:1,2020-07-01T05:33:00Z,28.6098,-87.9810,11.0,29.5,11111222
Shell,ioos:station:wmo:42902:1,2020-07-01T05:43:00Z,28.6098,-87.9810,11.0,29.4,11111222
Shell,ioos:station:wmo:42902:1,2020-07-01T05:53:00Z,28.6098,-87.9810,11.0,29.3,11111222
Shell,ioos:station:wmo:42902:1,2020-07-01T06:03:00Z,28.6098,-87.9810,11.0,29.4,11111222
Shell,ioos:station:wmo:42902:1,2020-07-01T06:13:00Z,28.6098,-87.9810,11.1,29.4,11111222
Shell,ioos:station:wmo:42902:1,2020-07-01T06:23:00Z,28.6097,-87.9810,11.1,29.4,11111222
Shell,ioos:station:wmo:42902:1,2020-07-01T06:33:00Z,28.6097,-87.9810,11.1,29.4,11111222
Shell,ioos:station:wmo:42902:1,2020-07-01T06:43:00Z,28.6098,-87.9810,11.2,29.4,11111222
Shell,ioos:station:wmo:42902:1,2020-07-01T06:53:00Z,28.6098,-87.9810,11.1,29.3,11111222
Shell,ioos:station:wmo:42902:1,2020-07-01T07:03:00Z,28.6098,-87.9810,10.9,29.3,11111222
Shell,ioos:station:wmo:42902:1,2020-07-01T07:13:00Z,28.6098,-87.9810,11.0,29.3,11111222
Shell,ioos:station:wmo:42902:1,2020-07-01T07:23:00Z,28.6098,-87.9810,11.1,29.2,11111222
Shell,ioos:station:wmo:42902:1,2020-07-01T07:33:00Z,28.6098,-87.9810,11.2,29.2,11111222
Shell,ioos:station:wmo:42902:1,2020-07-01T07:43:00Z,28.6098,-87.9810,11.1,29.3,11111222
Shell,ioos:station:wmo:42902:1,2020-07-01T07:53:00Z,28.6098,-87.9810,11.1,29.3,11111222
Shell,ioos:station:wmo:42902:1,2020-07-01T08:03:00Z,28.6098,-87.9810,11.0,29.4,11111222
Shell,ioos:station:wmo:42902:1,2020-07-01T08:13:00Z,28.6098,-87.9810,10.9,29.4,11111222
Shell,ioos:station:wmo:42902:1,2020-07-01T08:23:00Z,28.6098,-87.9810,11.0,29.4,11111222
Shell,ioos:station:wmo:42902:1,2020-07-01T08:33:00Z,28.6098,-87.9810,11.0,29.4,11111222
Shell,ioos:station:wmo:42902:1,2020-07-01T08:43:00Z,28.6098,-87.9810,11.0,29.3,11111222
Shell,ioos:station:wmo:42902:1,2020-07-01T08:53:00Z,28.6098,-87.9810,11.1,29.3,11111222
Shell,ioos:station:wmo:42902:1,2020-07-01T09:03:00Z,28.6098,-87.9810,11.1,29.2,11111222
Shell,ioos:station:wmo:42902:1,2020-07-01T09:13:00Z,28.6098,-87.9810,11.1,29.2,11111222
Shell,ioos:station:wmo:42902:1,2020-07-01T09:23:00Z,28.6098,-87.9810,10.9,29.2,11111222
Shell,ioos:station:wmo:42902:1,2020-07-01T09:33:00Z,28.6098,-87.9810,11.0,29.2,11111222
Shell,ioos:station:wmo:42902:1,2020-07-01T09:43:00Z,28.6098,-87.9810,11.1,29.2,11111222
Shell,ioos:station:wmo:42902:1,2020-07-01T09:53:00Z,28.6098,-87.9810,11.0,29.1,11111222
Shell,ioos:station:wmo:42902:1,2020-07-01T10:03:00Z,28.6098,-87.9810,11.0,29.1,11111222
Shell,ioos:station:wmo:42902:1,2020-07-01T10:13:00Z,28.6098,-87.9810,11.0,29.1,11111222
Shell,ioos:station:wmo:42902:1,2020-07-01T10:23:00Z,28.6097,-87.9810,11.1,28.9,11111222
Shell,ioos:station:wmo:42902:1,2020-07-01T10:34:00Z,28.6098,-87.9810,11.0,28.9,11111222
Shell,ioos:station:wmo:42902:1,2020-07-01T10:44:00Z,28.6098,-87.9810,11.0,28.9,11111222
Shell,ioos:station:wmo:42902:1,2020-07-01T10:54:00Z,28.6098,-87.9810,11.0,28.8,11111222
Shell,ioos:station:wmo:42902:1,2020-07-01T11:04:00Z,28.6098,-87.9810,11.1,28.9,11111222
Shell,ioos:station:wmo:42902:1,2020-07-01T11:14:00Z,28.6098,-87.9810,11.1,28.8,11111222
Shell,ioos:station:wmo:42902:1,2020-07-01T11:24:00Z,28.6098,-87.9810,11.1,28.9,11111222
Shell,ioos:station:wmo:42902:1,2020-07-01T11:34:00Z,28.6098,-87.9810,11.1,28.9,11111222
Shell,ioos:station:wmo:42902:1,2020-07-01T11:44:00Z,28.6098,-87.9810,11.1,29.0,11111222
Shell,ioos:station:wmo:42902:1,2020-07-01T11:54:00Z,28.6098,-87.9810,11.1,29.0,11111222
Shell,ioos:station:wmo:42902:1,2020-07-01T12:04:00Z,28.6098,-87.9810,11.1,29.1,11111222
Shell,ioos:station:wmo:42902:1,2020-07-01T12:14:00Z,28.6097,-87.9810,11.1,29.1,11111222
Shell,ioos:station:wmo:42902:1,2020-07-01T12:24:00Z,28.6098,-87.9810,11.1,29.1,11111222
Shell,ioos:station:wmo:42902:1,2020-07-01T12:34:00Z,28.6098,-87.9810,11.1,29.1,11111222
Shell,ioos:station:wmo:42902:1,2020-07-01T12:44:00Z,28.6098,-87.9810,11.1,29.1,11111222
Shell,ioos:station:wmo:42902:1,2020-07-01T12:54:00Z,28.6098,-87.9810,11.1,29.1,11111222
Shell,ioos:station:wmo:42902:1,2020-07-01T13:04:00Z,28.6098,-87.9810,11.1,29.0,11111222
Shell,ioos:station:wmo:42902:1,2020-07-01T13:14:00Z,28.6098,-87.9810,11.1,29.0,11111222
Shell,ioos:station:wmo:42902:1,2020-07-01T13:24:00Z,28.6098,-87.9810,11.1,29.0,11111222
Shell,ioos:station:wmo:42902:1,2020-07-01T13:34:00Z,28.6098,-87.9810,11.1,29.0,11111222
Shell,ioos:station:wmo:42902:1,2020-07-01T13:44:00Z,28.6098,-87.9810,11.1,29.0,11111222
Shell,ioos:station:wmo:42902:1,2020-07-01T13:54:00Z,28.6098,-87.9810,11.1,29.0,11111222
Shell,ioos:station:wmo:42902:1,2020-07-01T14:04:00Z,28.6098,-87.9810,11.1,29.1,11111222
Shell,ioos:station:wmo:42902:1,2020-07-01T14:14:00Z,28.6098,-87.9810,11.1,29.1,11111222
Shell,ioos:station:wmo:42902:1,2020-07-01T14:24:00Z,28.6098,-87.9810,11.1,29.1,11111222
Shell,ioos:station:wmo:42902:1,2020-07-01T14:34:00Z,28.6098,-87.9810,11.1,29.1,11111222
Shell,ioos:station:wmo:42902:1,2020-07-01T14:44:00Z,28.6098,-87.9810,11.1,29.1,11111222
Shell,ioos:station:wmo:42902:1,2020-07-01T14:54:00Z,28.6098,-87.9810,11.1,29.1,11111222
Shell,ioos:station:wmo:42902:1,2020-07-01T15:04:00Z,28.6098,-87.9810,11.1,29.2,11111222
Shell,ioos:station:wmo:42902:1,2020-07-01T15:14:00Z,28.6098,-87.9810,11.1,29.2,11111222
Shell,ioos:station:wmo:42902:1,2020-07-01T15:24:00Z,28.6098,-87.9810,11.1,29.2,11111222
Shell,ioos:station:wmo:42902:1,2020-07-01T15:34:00Z,28.6097,-87.9810,11.1,29.2,11111222
Shell,ioos:station:wmo:42902:1,2020-07-01T15:44:00Z,28.6098,-87.9810,11.1,29.2,11111222
Shell,ioos:station:wmo:42902:1,2020-07-01T15:54:00Z,28.6098,-87.9810,11.1,29.3,11111222
Shell,ioos:station:wmo:42902:1,2020-07-01T16:04:00Z,28.6103,-87.9794,11.1,29.3,11111222
Shell,ioos:station:wmo:42902:1,2020-07-01T16:14:00Z,28.6101,-87.9791,11.1,29.1,11111222
Shell,ioos:station:wmo:42902:1,2020-07-01T16:24:00Z,28.6089,-87.9806,11.1,28.9,11111222
Shell,ioos:station:wmo:42902:1,2020-07-01T16:34:00Z,28.6092,-87.9808,11.0,29.0,11111222
Shell,ioos:station:wmo:42902:1,2020-07-01T16:44:00Z,28.6096,-87.9810,11.0,29.1,11111222
Shell,ioos:station:wmo:42902:1,2020-07-01T16:54:00Z,28.6096,-87.9810,11.0,29.2,11111222
Shell,ioos:station:wmo:42902:1,2020-07-01T17:04:00Z,28.6096,-87.9810,11.0,29.3,11111222
Shell,ioos:station:wmo:42902:1,2020-07-01T17:14:00Z,28.6096,-87.9810,11.1,29.3,11111222
Shell,ioos:station:wmo:42902:1,2020-07-01T17:24:00Z,28.6096,-87.9810,11.1,29.3,11111222
Shell,ioos:station:wmo:42902:1,2020-07-01T17:34:00Z,28.6096,-87.9810,11.1,29.3,11111222
Shell,ioos:station:wmo:42902:1,2020-07-01T17:44:00Z,28.6095,-87.9809,11.1,29.3,11111222
Shell,ioos:station:wmo:42902:1,2020-07-01T17:55:00Z,28.6096,-87.9810,11.1,29.2,11111222
Shell,ioos:station:wmo:42902:1,2020-07-01T18:05:00Z,28.6089,-87.9805,11.1,29.2,11111222
Shell,ioos:station:wmo:42902:1,2020-07-01T18:15:00Z,28.6093,-87.9790,11.0,29.3,11111222
Shell,ioos:station:wmo:42902:1,2020-07-01T18:25:00Z,28.6087,-87.9799,11.0,29.3,11111222
Shell,ioos:station:wmo:42902:1,2020-07-01T18:35:00Z,28.6097,-87.9810,10.9,29.2,11111222
Shell,ioos:station:wmo:42902:1,2020-07-01T18:45:00Z,28.6099,-87.9810,10.9,29.0,11111222
Shell,ioos:station:wmo:42902:1,2020-07-01T18:55:00Z,28.6098,-87.9810,11.0,28.9,11111222
Shell,ioos:station:wmo:42902:1,2020-07-01T19:05:00Z,28.6096,-87.9810,11.0,29.1,11111222
Shell,ioos:station:wmo:42902:1,2020-07-01T19:15:00Z,28.6097,-87.9809,11.0,29.2,11111222
Shell,ioos:station:wmo:42902:1,2020-07-01T19:25:00Z,28.6098,-87.9809,11.0,28.9,11111222
Shell,ioos:station:wmo:42902:1,2020-07-01T19:35:00Z,28.6098,-87.9812,11.0,29.1,11111222
Shell,ioos:station:wmo:42902:1,2020-07-01T19:45:00Z,28.6098,-87.9810,10.9,29.1,11111222
Shell,ioos:station:wmo:42902:1,2020-07-01T19:55:00Z,28.6098,-87.9810,10.9,29.0,11111222
Shell,ioos:station:wmo:42902:1,2020-07-01T20:05:00Z,28.6098,-87.9810,10.9,28.9,11111222
Shell,ioos:station:wmo:42902:1,2020-07-01T20:15:00Z,28.6098,-87.9810,10.9,29.0,11111222
Shell,ioos:station:wmo:42902:1,2020-07-01T20:25:00Z,28.6098,-87.9810,10.9,28.8,11111222
Shell,ioos:station:wmo:42902:1,2020-07-01T20:35:00Z,28.6098,-87.9810,11.0,28.9,11111222
Shell,ioos:station:wmo:42902:1,2020-07-01T20:45:00Z,28.6097,-87.9810,11.0,28.9,11111222
Shell,ioos:station:wmo:42902:1,2020-07-01T20:55:00Z,28.6098,-87.9810,10.9,28.8,11111222
Shell,ioos:station:wmo:42902:1,2020-07-01T21:05:00Z,28.6097,-87.9810,10.9,28.8,11111222
Shell,ioos:station:wmo:42902:1,2020-07-01T21:15:00Z,28.6097,-87.9810,11.0,28.9,11111222
Shell,ioos:station:wmo:42902:1,2020-07-01T21:25:00Z,28.6097,-87.9810,11.0,28.8,11111222
Shell,ioos:station:wmo:42902:1,2020-07-01T21:35:00Z,28.6097,-87.9810,11.0,28.7,11111222
Shell,ioos:station:wmo:42902:1,2020-07-01T21:45:00Z,28.6097,-87.9810,11.1,28.7,11111222
Shell,ioos:station:wmo:42902:1,2020-07-01T21:55:00Z,28.6098,-87.9810,10.9,28.7,11111222
Shell,ioos:station:wmo:42902:1,2020-07-01T22:05:00Z,28.6098,-87.9810,11.0,28.7,11111222
Shell,ioos:station:wmo:42902:1,2020-07-01T22:15:00Z,28.6097,-87.9810,11.0,28.8,11111222
Shell,ioos:station:wmo:42902:1,2020-07-01T22:25:00Z,28.6097,-87.9810,11.0,28.8,11111222
Shell,ioos:station:wmo:42902:1,2020-07-01T22:35:00Z,28.6098,-87.9810,11.0,28.6,11111222
Shell,ioos:station:wmo:42902:1,2020-07-01T22:45:00Z,28.6098,-87.9810,11.0,28.5,11111222
Shell,ioos:station:wmo:42902:1,2020-07-01T22:55:00Z,28.6098,-87.9810,11.0,28.6,11111222
Shell,ioos:station:wmo:42902:1,2020-07-01T23:05:00Z,28.6098,-87.9810,11.0,28.6,11111222
Shell,ioos:station:wmo:42902:1,2020-07-01T23:15:00Z,28.6098,-87.9810,11.0,28.8,11111222
Shell,ioos:station:wmo:42902:1,2020-07-01T23:25:00Z,28.6098,-87.9810,11.0,29.1,11111222
Shell,ioos:station:wmo:42902:1,2020-07-01T23:35:00Z,28.6098,-87.9810,10.9,29.2,11111222
Shell,ioos:station:wmo:42902:1,2020-07-01T23:45:00Z,28.6098,-87.9810,10.9,29.4,11111222
Shell,ioos:station:wmo:42902:1,2020-07-01T23:55:00Z,28.6098,-87.9810,10.9,29.6,11111222
Shell,ioos:station:wmo:42902:1,2020-07-02T00:05:00Z,28.6098,-87.9810,11.0,29.4,11111222
Shell,ioos:station:wmo:42902:1,2020-07-02T00:15:00Z,28.6098,-87.9810,10.9,29.6,11111222
Shell,ioos:station:wmo:42902:1,2020-07-02T00:25:00Z,28.6098,-87.9810,11.0,29.0,11111222
Shell,ioos:station:wmo:42902:1,2020-07-02T00:35:00Z,28.6098,-87.9810,11.0,29.2,11111222
Shell,ioos:station:wmo:42902:1,2020-07-02T00:45:00Z,28.6098,-87.9810,11.0,29.5,11111222
Shell,ioos:station:wmo:42902:1,2020-07-02T00:55:00Z,28.6098,-87.9810,11.1,29.6,11111222
Shell,ioos:station:wmo:42902:1,2020-07-02T01:05:00Z,28.6098,-87.9810,11.0,29.7,11111222
Shell,ioos:station:wmo:42902:1,2020-07-02T01:15:00Z,28.6098,-87.9810,11.0,29.7,11111222
Shell,ioos:station:wmo:42902:1,2020-07-02T01:26:00Z,28.6098,-87.9810,10.9,29.7,11111222
Shell,ioos:station:wmo:42902:1,2020-07-02T01:36:00Z,28.6098,-87.9810,10.9,29.7,11111222
Shell,ioos:station:wmo:42902:1,2020-07-02T01:46:00Z,28.6098,-87.9810,10.8,29.6,11111222
Shell,ioos:station:wmo:42902:1,2020-07-02T01:56:00Z,28.6098,-87.9810,10.9,29.6,11111222
Shell,ioos:station:wmo:42902:1,2020-07-02T02:06:00Z,28.6098,-87.9810,10.9,29.7,11111222
Shell,ioos:station:wmo:42902:1,2020-07-02T02:16:00Z,28.6098,-87.9810,10.9,29.8,11111222
Shell,ioos:station:wmo:42902:1,2020-07-02T02:26:00Z,28.6098,-87.9810,10.9,29.8,11111222
Shell,ioos:station:wmo:42902:1,2020-07-02T02:36:00Z,28.6098,-87.9810,10.9,29.6,11111222
Shell,ioos:station:wmo:42902:1,2020-07-02T02:46:00Z,28.6098,-87.9810,10.9,29.7,11111222
Shell,ioos:station:wmo:42902:1,2020-07-02T02:56:00Z,28.6098,-87.9810,10.8,29.7,11111222
Shell,ioos:station:wmo:42902:1,2020-07-02T03:06:00Z,28.6098,-87.9810,10.9,29.6,11111222
Shell,ioos:station:wmo:42902:1,2020-07-02T03:16:00Z,28.6098,-87.9810,10.9,29.5,11111222
Shell,ioos:station:wmo:42902:1,2020-07-02T03:26:00Z,28.6098,-87.9810,10.8,29.2,11111222
Shell,ioos:station:wmo:42902:1,2020-07-02T03:36:00Z,28.6098,-87.9810,10.7,28.9,11111222
Shell,ioos:station:wmo:42902:1,2020-07-02T03:46:00Z,28.6098,-87.9810,10.7,28.9,11111222
Shell,ioos:station:wmo:42902:1,2020-07-02T03:56:00Z,28.6098,-87.9810,10.8,29.0,11111222
Shell,ioos:station:wmo:42902:1,2020-07-02T04:06:00Z,28.6098,-87.9810,10.8,29.1,11111222
Shell,ioos:station:wmo:42902:1,2020-07-02T04:16:00Z,28.6098,-87.9810,10.9,28.9,11111222
Shell,ioos:station:wmo:42902:1,2020-07-02T04:26:00Z,28.6098,-87.9810,11.0,28.9,11111222
Shell,ioos:station:wmo:42902:1,2020-07-02T04:36:00Z,28.6098,-87.9810,11.0,28.9,11111222
Shell,ioos:station:wmo:42902:1,2020-07-02T04:46:00Z,28.6098,-87.9810,11.0,28.8,11111222
Shell,ioos:station:wmo:42902:1,2020-07-02T04:56:00Z,28.6098,-87.9810,11.0,28.8,11111222
Shell,ioos:station:wmo:42902:1,2020-07-02T05:06:00Z,28.6098,-87.9810,11.0,28.7,11111222
Shell,ioos:station:wmo:42902:1,2020-07-02T05:16:00Z,28.6098,-87.9810,11.0,28.7,11111222
Shell,ioos:station:wmo:42902:1,2020-07-02T05:26:00Z,28.6098,-87.9810,10.9,28.7,11111222
Shell,ioos:station:wmo:42902:1,2020-07-02T05:36:00Z,28.6098,-87.9810,10.9,28.7,11111222
Shell,ioos:station:wmo:42902:1,2020-07-02T05:46:00Z,28.6098,-87.9810,10.9,28.7,11111222
Shell,ioos:station:wmo:42902:1,2020-07-02T05:56:00Z,28.6098,-87.9810,10.8,28.7,11111222
Shell,ioos:station:wmo:42902:1,2020-07-02T06:06:00Z,28.6098,-87.9810,10.9,28.8,11111222
Shell,ioos:station:wmo:42902:1,2020-07-02T06:16:00Z,28.6097,-87.9810,10.9,28.8,11111222
Shell,ioos:station:wmo:42902:1,2020-07-02T06:26:00Z,28.6098,-87.9810,10.8,28.8,11111222
Shell,ioos:station:wmo:42902:1,2020-07-02T06:36:00Z,28.6098,-87.9810,10.8,28.8,11111222
Shell,ioos:station:wmo:42902:1,2020-07-02T06:46:00Z,28.6098,-87.9810,10.9,28.8,11111222
Shell,ioos:station:wmo:42902:1,2020-07-02T06:56:00Z,28.6098,-87.9810,10.8,28.9,11111222
Shell,ioos:station:wmo:42902:1,2020-07-02T07:06:00Z,28.6098,-87.9810,10.8,28.9,11111222
Shell,ioos:station:wmo:42902:1,2020-07-02T07:16:00Z,28.6098,-87.9810,10.8,28.9,11111222
Shell,ioos:station:wmo:42902:1,2020-07-02T07:26:00Z,28.6098,-87.9810,10.9,28.9,11111222
Shell,ioos:station:wmo:42902:1,2020-07-02T07:36:00Z,28.6098,-87.9810,11.0,29.1,11111222
Shell,ioos:station:wmo:42902:1,2020-07-02T07:46:00Z,28.6098,-87.9810,11.0,29.1,11111222
Shell,ioos:station:wmo:42902:1,2020-07-02T07:56:00Z,28.6098,-87.9810,11.0,29.0,11111222
Shell,ioos:station:wmo:42902:1,2020-07-02T08:06:00Z,28.6098,-87.9810,10.9,29.1,11111222
Shell,ioos:station:wmo:42902:1,2020-07-02T08:16:00Z,28.6098,-87.9810,11.0,29.1,11111222
Shell,ioos:station:wmo:42902:1,2020-07-02T08:26:00Z,28.6098,-87.9810,10.9,29.1,11111222
Shell,ioos:station:wmo:42902:1,2020-07-02T08:36:00Z,28.6098,-87.9810,10.9,29.1,11111222
Shell,ioos:station:wmo:42902:1,2020-07-02T08:47:00Z,28.6098,-87.9810,10.9,29.1,11111222
Shell,ioos:station:wmo:42902:1,2020-07-02T08:57:00Z,28.6098,-87.9810,10.9,29.2,11111222
Shell,ioos:station:wmo:42902:1,2020-07-02T09:07:00Z,28.6098,-87.9810,10.9,29.1,11111222
Shell,ioos:station:wmo:42902:1,2020-07-02T09:17:00Z,28.6098,-87.9810,10.8,29.1,11111222
Shell,ioos:station:wmo:42902:1,2020-07-02T09:27:00Z,28.6098,-87.9810,11.0,29.1,11111222
Shell,ioos:station:wmo:42902:1,2020-07-02T09:37:00Z,28.6098,-87.9810,11.0,29.1,11111222
Shell,ioos:station:wmo:42902:1,2020-07-02T09:47:00Z,28.6098,-87.9810,11.0,29.1,11111222
Shell,ioos:station:wmo:42902:1,2020-07-02T09:57:00Z,28.6098,-87.9810,11.0,29.1,11111222
Shell,ioos:station:wmo:42902:1,2020-07-02T10:07:00Z,28.6098,-87.9810,11.0,29.1,11111222
Shell,ioos:station:wmo:42902:1,2020-07-02T10:17:00Z,28.6098,-87.9810,11.0,29.1,11111222
Shell,ioos:station:wmo:42902:1,2020-07-02T10:27:00Z,28.6098,-87.9810,11.0,29.1,11111222
Shell,ioos:station:wmo:42902:1,2020-07-02T10:37:00Z,28.6098,-87.9810,10.9,29.1,11111222
Shell,ioos:station:wmo:42902:1,2020-07-02T10:47:00Z,28.6091,-87.9808,10.7,29.1,11111222
Shell,ioos:station:wmo:42902:1,2020-07-02T10:57:00Z,28.6088,-87.9798,10.6,29.0,11111222
Shell,ioos:station:wmo:42902:1,2020-07-02T11:07:00Z,28.6088,-87.9798,10.8,29.1,11111222
Shell,ioos:station:wmo:42902:1,2020-07-02T11:17:00Z,28.6088,-87.9798,10.8,29.1,11111222
Shell,ioos:station:wmo:42902:1,2020-07-02T11:27:00Z,28.6088,-87.9798,10.8,29.1,11111222
Shell,ioos:station:wmo:42902:1,2020-07-02T11:37:00Z,28.6088,-87.9798,11.0,29.1,11111222
Shell,ioos:station:wmo:42902:1,2020-07-02T11:47:00Z,28.6088,-87.9798,11.0,29.2,11111222
Shell,ioos:station:wmo:42902:1,2020-07-02T11:57:00Z,28.6088,-87.9798,10.9,29.2,11111222
Shell,ioos:station:wmo:42902:1,2020-07-02T12:07:00Z,28.6088,-87.9798,10.9,29.2,11111222
Shell,ioos:station:wmo:42902:1,2020-07-02T12:17:00Z,28.6088,-87.9798,11.0,29.2,11111222
Shell,ioos:station:wmo:42902:1,2020-07-02T12:27:00Z,28.6088,-87.9798,10.8,29.2,11111222
Shell,ioos:station:wmo:42902:1,2020-07-02T12:37:00Z,28.6088,-87.9798,10.8,29.3,11111222
Shell,ioos:station:wmo:42902:1,2020-07-02T12:47:00Z,28.6088,-87.9798,10.7,29.3,11111222
Shell,ioos:station:wmo:42902:1,2020-07-02T12:57:00Z,28.6088,-87.9798,10.8,29.3,11111222
Shell,ioos:station:wmo:42902:1,2020-07-02T13:07:00Z,28.6088,-87.9798,10.8,29.3,11111222
Shell,ioos:station:wmo:42902:1,2020-07-02T13:17:00Z,28.6088,-87.9798,10.8,29.3,11111222
Shell,ioos:station:wmo:42902:1,2020-07-02T13:27:00Z,28.6088,-87.9798,10.9,29.3,11111222
Shell,ioos:station:wmo:42902:1,2020-07-02T13:37:00Z,28.6088,-87.9798,10.9,29.4,11111222
Shell,ioos:station:wmo:42902:1,2020-07-02T13:47:00Z,28.6088,-87.9798,10.9,29.4,11111222
Shell,ioos:station:wmo:42902:1,2020-07-02T13:57:00Z,28.6088,-87.9798,10.9,29.4,11111222
Shell,ioos:station:wmo:42902:1,2020-07-02T14:07:00Z,28.6088,-87.9798,10.9,29.4,11111222
Shell,ioos:station:wmo:42902:1,2020-07-02T14:17:00Z,28.6088,-87.9798,11.0,29.4,11111222
Shell,ioos:station:wmo:42902:1,2020-07-02T14:27:00Z,28.6088,-87.9798,10.9,29.4,11111222
Shell,ioos:station:wmo:42902:1,2020-07-02T14:37:00Z,28.6088,-87.9798,11.0,29.4,11111222
Shell,ioos:station:wmo:42902:1,2020-07-02T14:47:00Z,28.6088,-87.9798,11.0,29.4,11111222
Shell,ioos:station:wmo:42902:1,2020-07-02T14:57:00Z,28.6088,-87.9798,11.0,29.4,11111222
Shell,ioos:station:wmo:42902:1,2020-07-02T15:07:00Z,28.6094,-87.9810,10.9,29.3,11111222
Shell,ioos:station:wmo:42902:1,2020-07-02T15:17:00Z,28.6093,-87.9809,10.7,29.2,11111222
Shell,ioos:station:wmo:42902:1,2020-07-02T15:27:00Z,28.6093,-87.9809,10.8,29.1,11111222
Shell,ioos:station:wmo:42902:1,2020-07-02T15:37:00Z,28.6093,-87.9809,10.8,29.3,11111222
Shell,ioos:station:wmo:42902:1,2020-07-02T15:47:00Z,28.6093,-87.9809,10.9,29.3,11111222
Shell,ioos:station:wmo:42902:1,2020-07-02T15:57:00Z,28.6093,-87.9809,10.9,29.3,11111222
Shell,ioos:station:wmo:42902:1,2020-07-02T16:08:00Z,28.6095,-87.9810,11.0,29.3,11111222
Shell,ioos:station:wmo:42902:1,2020-07-02T16:18:00Z,28.6095,-87.9810,10.9,29.3,11111222
Shell,ioos:station:wmo:42902:1,2020-07-02T16:28:00Z,28.6095,-87.9810,10.9,29.3,11111222
Shell,ioos:station:wmo:42902:1,2020-07-02T16:38:00Z,28.6095,-87.9810,10.9,29.3,11111222
Shell,ioos:station:wmo:42902:1,2020-07-02T16:48:00Z,28.6095,-87.9810,10.9,29.3,11111222
Shell,ioos:station:wmo:42902:1,2020-07-02T16:58:00Z,28.6095,-87.9810,10.9,29.3,11111222
Shell,ioos:station:wmo:42902:1,2020-07-02T17:08:00Z,28.6095,-87.9810,10.9,29.3,11111222
Shell,ioos:station:wmo:42902:1,2020-07-02T17:18:00Z,28.6095,-87.9810,10.9,29.3,11111222
Shell,ioos:station:wmo:42902:1,2020-07-02T17:28:00Z,28.6095,-87.9810,11.0,29.3,11111222
Shell,ioos:station:wmo:42902:1,2020-07-02T17:38:00Z,28.6095,-87.9810,11.0,29.3,11111222
Shell,ioos:station:wmo:42902:1,2020-07-02T17:48:00Z,28.6095,-87.9810,11.1,29.3,11111222
Shell,ioos:station:wmo:42902:1,2020-07-02T17:58:00Z,28.6095,-87.9810,11.0,29.3,11111222
Shell,ioos:station:wmo:42902:1,2020-07-02T18:08:00Z,28.6095,-87.9810,10.9,29.3,11111222
Shell,ioos:station:wmo:42902:1,2020-07-02T18:18:00Z,28.6095,-87.9810,10.9,29.3,11111222
Shell,ioos:station:wmo:42902:1,2020-07-02T18:28:00Z,28.6095,-87.9810,10.9,29.3,11111222
Shell,ioos:station:wmo:42902:1,2020-07-02T18:38:00Z,28.6095,-87.9810,10.9,29.3,11111222
Shell,ioos:station:wmo:42902:1,2020-07-02T18:48:00Z,28.6095,-87.9810,10.9,29.2,11111222
Shell,ioos:station:wmo:42902:1,2020-07-02T18:58:00Z,28.6095,-87.9810,10.9,29.2,11111222
Shell,ioos:station:wmo:42902:1,2020-07-02T19:08:00Z,28.6095,-87.9810,10.9,29.3,11111222
Shell,ioos:station:wmo:42902:1,2020-07-02T19:18:00Z,28.6095,-87.9810,11.0,29.3,11111222
Shell,ioos:station:wmo:42902:1,2020-07-02T19:28:00Z,28.6095,-87.9810,11.0,29.3,11111222
Shell,ioos:station:wmo:42902:1,2020-07-02T19:38:00Z,28.6095,-87.9810,11.1,29.3,11111222
Shell,ioos:station:wmo:42902:1,2020-07-02T19:48:00Z,28.6095,-87.9810,11.1,29.3,11111222
Shell,ioos:station:wmo:42902:1,2020-07-02T19:58:00Z,28.6095,-87.9810,10.8,29.3,11111222
Shell,ioos:station:wmo:42902:1,2020-07-02T20:08:00Z,28.6095,-87.9810,10.8,29.3,11111222
Shell,ioos:station:wmo:42902:1,2020-07-02T20:18:00Z,28.6095,-87.9810,10.8,29.3,11111222
Shell,ioos:station:wmo:42902:1,2020-07-02T20:28:00Z,28.6095,-87.9810,10.8,29.3,11111222
Shell,ioos:station:wmo:42902:1,2020-07-02T20:38:00Z,28.6095,-87.9810,10.8,29.3,11111222